Regional Weather Roundup
Issued by NWS Charleston, SC

Current Version | Previous Version | Graphics & Text | Print | Product List | Glossary On
Versions: 1 2 3 4 5 6 7 8 9 10 11 12 13 14 15 16 17 18 19 20 21 22 23 24 25 26 27 28 29 30 31 32 33 34 35 36 37 38 39 40 41 42 43 44 45 46 47 48 49 50
000
ASUS42 KCHS 230010
RWRCHS

REGIONAL WEATHER ROUNDUP
NATIONAL WEATHER SERVICE CHARLESTON SC
800 PM EDT TUE JUL 22 2014

NOTE: "FAIR" INDICATES FEW OR NO CLOUDS BELOW 12,000 FEET WITH NO
SIGNIFICANT WEATHER AND/OR OBSTRUCTIONS TO VISIBILITY.

NOT ALL STATIONS ARE QUALITY CONTROLLED BY THE NATIONAL
WEATHER SERVICE. USE DATA WITH CAUTION...ESPECIALLY
DEWPOINT OBSERVATIONS.

SCZ027-030-031-034>040-042>050-230100-
...SOUTH CAROLINA...

CITY           SKY/WX    TMP DP  RH WIND       PRES   REMARKS
N CHARLESTON   MOCLDY    83  74  74 SE8       30.08R
6HR MIN TEMP:  83; 6HR MAX TEMP:  87; 6HR PCP: TRACE;

WATERFRONT PRK NOT AVBL
FORT JOHNSON   NOT AVBL
MOUNT PLEASANT DRIZZLE   81  75  83 CALM      30.09R
JOHNS ISLAND   CLEAR     81  68  65 CALM      30.09R
PINOPOLIS        N/A     84  75  74 S2        30.02R HX  92
MONCKS CORNER    N/A     82  77  83 CALM      30.09R HX  91
SUMMERVILLE    MOCLDY    81  75  83 CALM      30.09R
BEAUFORT MCAS  MOCLDY    83  76  79 S9        30.07R HX  91
6HR MIN TEMP:  83; 6HR MAX TEMP:  91;

BEAUFORT ARPT  FAIR      81  77  89 SE5       30.06R
HILTON HEAD IS PTCLDY    81  75  83 SE6       30.08R
GEORGETOWN     NOT AVBL
WALTERBORO     MOCLDY    82  73  74 E6        30.07S
ORANGEBURG     PTCLDY    82  72  71 E5        30.08R
6HR MIN TEMP:  82; 6HR MAX TEMP:  88;

BARNWELL       FAIR      82  73  74 E7        30.07R
AIKEN          FAIR      79  79 100 NE6       30.11S THUNDER
MANNING        FAIR      81 N/A N/A MISG      30.08R
KINGSTREE      NOT AVBL
COLUMBIA       MOCLDY    83  75  77 SE6       30.07R HX  90
6HR MIN TEMP:  82; 6HR MAX TEMP:  90; 6HR PCP: TRACE;

SUMTER         MOCLDY    81  75  81 SE3       30.07R
6HR MIN TEMP:  81; 6HR MAX TEMP:  88;

FLORENCE       CLOUDY    83  74  74 S3        30.07R
6HR MIN TEMP:  83; 6HR MAX TEMP:  88;

MYRTLE BEACH   PTCLDY    81  75  83 S10       30.08R
N MYRTLE BEACH MOCLDY    80  75  84 S7        30.08R
6HR MIN TEMP:  80; 6HR MAX TEMP:  86; 6HR PCP:  0.03;


$$

GAZ063-065-086>088-099>101-113>116-118-119-134-136>141-150-230100-
...GEORGIA...

CITY           SKY/WX    TMP DP  RH WIND       PRES   REMARKS
SAVANNAH ARPT  MOCLDY    82  72  71 SE7       30.07R
6HR MIN TEMP:  82; 6HR MAX TEMP:  92;

HUNTER AAF     PTCLDY    82  74  76 SE5       30.05R
6HR MIN TEMP:  82; 6HR MAX TEMP:  88;

FORT STEWART   MOCLDY    83  74  74 SE6       30.06R
6HR MIN TEMP:  81; 6HR MAX TEMP:  90;

STATESBORO     NOT AVBL
SYLVANIA       PTCLDY    85  79  80 CALM      30.06R HX  98
CLAXTON        MOCLDY    77  77 100 CALM      30.07R
THOMSON        PTCLDY    85  78  82 CALM      30.11S HX  96
AUGUSTA-BUSH   PTCLDY    81  73  76 E6        30.05R
6HR MIN TEMP:  81; 6HR MAX TEMP:  89;

AUGUSTA-DANIEL PTCLDY    82  73  74 E7        30.07S
SWAINSBORO     FAIR      79  79 100 CALM      30.07S
VIDALIA          N/A     81  75  83 NW3       30.07R
ALMA           MOCLDY    81  73  76 SE9       30.07R
6HR MIN TEMP:  79; 6HR MAX TEMP:  91; 6HR PCP:  0.02;

WAYCROSS       PTCLDY    82  79  91 E3        30.06R HX  92
JESUP          NOT AVBL
BRUNSWICK      MOCLDY    82  73  74 CALM      30.07R
SAINT SIMONS   MOCLDY    81  74  79 SE9       30.06R
6HR MIN TEMP:  81; 6HR MAX TEMP:  85;


$$

SCZ027-028-034-036>038-045-046-048>050-GAZ119-141-230100-
...LAKE AND SUPPLEMENTAL COASTAL OBSERVATIONS...

STATION/POSITION TIME  TEMP    WIND        PRES    WAVE   SWELL
                       AIR SEA DIR/SP/G            HT/PER HT/PER/DIR
                 (UTC) (F)     (DEG/KT/KT) (MB)    (FT/S) (FT/S/D)
UPR LAKE MARION  NOT AVBL
WINYAH BAY       2300   81     120/  5     1018.0S
LAKE MURRAY      2300   77     330/  1/  6 1017.9R
ACE BASIN NERRS  2300   83     140/  2     1018.0S
FORT PULASKI     0000   81     120/  7/ 10 1018.2S
SAPELO ISLAND    2300   84     140/  5     1018.0S

$$

ANZ835-935-AMZ111-154-330-350-352-354-374-450-454-472-230100-
...C-MAN AND BUOY OBSERVATIONS...

STATION/POSITION TIME  TEMP    WIND        PRES    WAVE   SWELL
                       AIR SEA DIR/SP/G            HT/PER HT/PER/DIR
                 (UTC) (F)     (DEG/KT/KT) (MB)    (FT/S) (FT/S/D)
FOLLY BEACH CMAN 2300   80     140/  9/ 11 1018.5R
BUOY 41004       0000   80 82  140/ 14/ 16 1018.2R   3/ 8   2/ 8
BUOY 41008       0000   81 85  120/ 10/ 12 1017.7R   2/ 8   2/100/ 8
5E ST. MARYS GA  0000      84                N/A     2/ 8
FRYING PAN BUOY  NOT AVBL
BUOY 41025       0000          VRB 17/ 19  1019.5S   4/ 7   3/130/ 7
CAPE LOOKOUT NC  2300   79     180/ 16/ 19 1019.2R
BUOY 41002       NOT AVBL
BUOY 41010       0000   81 83  140/ 10/ 12 1018.8R   4/ 6   3/130/ 6
BUOY 41012       NOT AVBL
ST AUGUSTINE FL  0000   82     130/  8/  9 1018.6R
CAPERS NEARSHORE 2300   80     130/ 10/ 12   N/A
FRIPP NEARSHORE  NOT AVBL


$$



USA.gov is the U.S. government's official web portal to all federal, state and local government web resources and services.